Flag for U.S.A. Weather past 2 weeks in Cape Canaveral, Florida, U.S.A.

Now
68 °F

Clear.


Feels Like: 68 °F
Forecast: 63 / 80 °F
Wind: 6 mph from Southwest

Location: Cape Kennedy

Current Time: Mar 31, 2015 at 11:51:48 PM

Latest Report: Mar 31, 2015 at 10:58 PM


Visibility: 10 mi

Pressure: 30.09 "Hg

Humidity: 86%

Dew point: 64 °F

Location of Cape CanaveralLocation

Historic Weather in Cape Canaveral — Graph

°F

Cape Canaveral temperature yesterday

Maximum temperature yesterday: 74 °F (at 2:58 PM)
Minimum temperature yesterday: 46 °F (at 7:03 AM)
Average temperature yesterday: 63 °F

Past Weeks' High & Low Weather Summary

 TemperatureHumidityPressure
High86 °F (Mar 17, 4:58 PM)100% (Mar 17, 7:03 AM)30.36 "Hg (Mar 17, 7:03 AM)
Low46 °F (Mar 30, 7:03 AM)29% (Mar 28, 2:58 PM)29.77 "Hg (Mar 27, 3:58 PM)
Average69 °F79%30.05 "Hg
* Reported Mar 16 9:58 PM — Mar 31 9:58 PM, Cape Canaveral, Weather by CustomWeather, © 2015

Note: Actual official high and low records may vary slightly from our data, if they occured in-between our weather recording intervals... More about our weather records

Advertising

Cape Canaveral weather history for previous 24 hours

 ConditionsComfort  
Time TempWeatherWind HumidityBarometerVisibility
9:58 PM
Tue, Mar 31
71 °FPassing clouds.6 mph82%30.09 "Hg10 mi
8:58 PM71 °FClear.10 mph82%30.06 "Hg10 mi
7:58 PM71 °FSunny.9 mph81%30.05 "Hg10 mi
6:58 PM73 °FSunny.10 mph73%30.04 "Hg10 mi
5:58 PM74 °FSunny.13 mph65%30.04 "Hg10 mi
4:58 PM76 °FSunny.13 mph61%30.05 "Hg10 mi
3:58 PM78 °FSunny.12 mph51%30.06 "Hg10 mi
2:58 PM79 °FSunny.10 mph56%30.09 "Hg10 mi
1:58 PM75 °FScattered clouds.9 mph66%30.11 "Hg10 mi
12:58 PM78 °FScattered clouds.8 mph55%30.14 "Hg9 mi
11:58 AM76 °FSunny.5 mph61%30.15 "Hg10 mi
10:58 AM73 °FSunny.8 mph67%30.16 "Hg10 mi
9:58 AM70 °FSunny.12 mph74%30.16 "Hg10 mi
8:58 AM65 °FSunny.8 mph84%30.16 "Hg10 mi
7:58 AM61 °FClear.5 mph91%30.15 "Hg10 mi
6:58 AM60 °FClear.No wind89%30.14 "Hg10 mi
5:58 AM59 °FClear.3 mph86%30.13 "Hg10 mi
4:58 AM60 °FClear.6 mph84%30.13 "Hg10 mi
3:58 AM60 °FClear.6 mph81%30.13 "Hg10 mi
2:58 AM61 °FClear.5 mph78%30.14 "Hg10 mi
1:58 AM61 °FClear.No wind79%30.16 "Hg10 mi
12:58 AM62 °FClear.5 mph81%30.17 "Hg10 mi
11:58 PM
Mon, Mar 30
62 °FClear.10 mph79%30.17 "Hg10 mi
Weather by CustomWeather, © 2015

See weather overviewHow to use our weather pages